GAOFEN 11-3 (49492 NORAD) Tracking and Keplerian Element Data

This shows tracking and keplerian element data for the satellite.

Feedback or suggestion? Click here.




ElementValue
Catalog49492
NameGAOFEN 11-3
Epoch Orbit878
Epoch Day16.27559686
Epoch Year2022
RAAN72.4746
Inclination97.4485
Eccentricity0.0288518
Argument of Perigee326.5493
Mean Anonmoly94.9972
Mean Motion15.43069353
Decay Rate0.0011956
L11 49492U 21107A 22016.27559686 .00119560 54772-5 52442-3 0 9990
L22 49492 97.4485 72.4746 0288518 326.5493 94.9972 15.43069353 8783

Live tracking and technical data element details for GAOFEN 11-3 (NORAD 49492). GAOFEN 11-3 can be tracked NOW for your location showing map with azimuth and elevation plus other details from your city location.

Track the satellite on the map from your city or location and see movement details for azimuth, elevation, latitude, longitude, range, height, and movement on the map or in text.







IsCatalogInMostPopularTable: catalog: 49492, numindb: 6
Update: records affected: 1



GetName: 49492 GAOFEN 11-3

Hit Count: updated at: Thu, 20 Jan 2022 16:33:05 GMT